Time,TemperatureF,DewpointF,PressureIn,WindDirection,WindDirectionDegrees,WindSpeedMPH,WindSpeedGustMPH,Humidity,HourlyPrecipIn,Conditions,Clouds,dailyrainin,SoftwareType,DateUTC
2013-01-30 00:00:00,71.8,62.3,29.57,ESE,112,0.0,0.0,72,0.00,,,0.00,WUHU21623XXSP,2013-01-30 05:00:00,
2013-01-30 00:01:00,71.8,62.3,29.57,ESE,112,0.0,0.0,72,0.00,,,0.00,WUHU21623XXSP,2013-01-30 05:01:00,
2013-01-30 00:03:00,71.8,62.3,29.57,SE,135,0.0,0.0,72,0.00,,,0.00,WUHU21623XXSP,2013-01-30 05:03:00,
2013-01-30 00:08:00,71.8,62.3,29.57,SSE,157,0.0,0.0,72,0.00,,,0.00,WUHU21623XXSP,2013-01-30 05:08:00,
2013-01-30 00:13:00,71.8,62.7,29.57,SE,135,0.0,0.0,73,0.00,,,0.00,WUHU21623XXSP,2013-01-30 05:13:00,
2013-01-30 00:18:00,71.8,62.3,29.57,ESE,112,0.0,0.0,72,0.00,,,0.00,WUHU21623XXSP,2013-01-30 05:18:00,
2013-01-30 00:23:00,71.8,62.3,29.57,ESE,112,0.0,0.0,72,0.00,,,0.00,WUHU21623XXSP,2013-01-30 05:23:00,
2013-01-30 00:28:00,71.8,62.3,29.56,SSE,157,0.0,0.0,72,0.00,,,0.00,WUHU21623XXSP,2013-01-30 05:28:00,
2013-01-30 00:33:00,71.8,62.3,29.56,ESE,112,0.0,0.0,72,0.00,,,0.00,WUHU21623XXSP,2013-01-30 05:33:00,
2013-01-30 00:38:00,71.8,61.9,29.56,SE,135,0.0,0.0,71,0.00,,,0.00,WUHU21623XXSP,2013-01-30 05:38:00,
2013-01-30 00:43:00,71.8,61.9,29.56,SE,135,0.0,0.0,71,0.00,,,0.00,WUHU21623XXSP,2013-01-30 05:43:00,
2013-01-30 00:48:00,71.8,62.3,29.55,SE,135,0.0,0.0,72,0.00,,,0.00,WUHU21623XXSP,2013-01-30 05:48:00,
2013-01-30 00:53:00,71.8,62.3,29.55,SE,135,0.0,0.0,72,0.00,,,0.00,WUHU21623XXSP,2013-01-30 05:53:00,
2013-01-30 00:58:00,71.4,61.9,29.55,SE,135,0.0,0.0,72,0.00,,,0.00,WUHU21623XXSP,2013-01-30 05:58:00,
2013-01-30 01:03:00,71.4,62.3,29.55,SSE,157,0.0,0.0,73,0.00,,,0.00,WUHU21623XXSP,2013-01-30 06:03:00,
2013-01-30 01:08:00,71.4,62.3,29.55,SSE,157,0.0,0.0,73,0.00,,,0.00,WUHU21623XXSP,2013-01-30 06:08:00,
2013-01-30 01:13:00,71.4,62.3,29.55,South,180,0.0,0.0,73,0.00,,,0.00,WUHU21623XXSP,2013-01-30 06:13:00,
2013-01-30 01:18:00,71.4,62.3,29.55,SSE,157,0.0,0.0,73,0.00,,,0.00,WUHU21623XXSP,2013-01-30 06:18:00,
2013-01-30 01:23:00,71.4,62.7,29.55,South,180,0.0,0.0,74,0.00,,,0.00,WUHU21623XXSP,2013-01-30 06:23:00,
2013-01-30 01:28:00,71.4,62.7,29.55,SSE,157,0.0,0.0,74,0.00,,,0.00,WUHU21623XXSP,2013-01-30 06:28:00,
2013-01-30 01:33:00,71.4,62.7,29.55,SE,135,0.0,0.0,74,0.00,,,0.00,WUHU21623XXSP,2013-01-30 06:33:00,
2013-01-30 01:38:00,71.4,62.7,29.55,ESE,112,0.0,0.0,74,0.00,,,0.00,WUHU21623XXSP,2013-01-30 06:38:00,
2013-01-30 01:43:00,71.6,62.9,29.55,SSW,202,0.0,0.0,74,0.00,,,0.00,WUHU21623XXSP,2013-01-30 06:43:00,
2013-01-30 01:48:00,71.4,62.7,29.55,SE,135,0.0,0.0,74,0.00,,,0.00,WUHU21623XXSP,2013-01-30 06:48:00,
2013-01-30 01:53:00,71.4,62.3,29.55,SSE,157,0.0,0.0,73,0.00,,,0.00,WUHU21623XXSP,2013-01-30 06:53:00,
2013-01-30 01:58:00,71.4,62.3,29.55,SSE,157,0.0,0.0,73,0.00,,,0.00,WUHU21623XXSP,2013-01-30 06:58:00,
2013-01-30 02:03:00,71.4,62.3,29.55,SSE,157,0.0,0.0,73,0.00,,,0.00,WUHU21623XXSP,2013-01-30 07:03:00,
2013-01-30 02:08:00,71.6,62.5,29.55,SSE,157,0.0,0.0,73,0.00,,,0.00,WUHU21623XXSP,2013-01-30 07:08:00,
2013-01-30 02:13:00,71.4,62.5,29.55,SSE,157,0.0,0.0,73,0.00,,,0.00,WUHU21623XXSP,2013-01-30 07:13:00,
2013-01-30 02:18:00,71.6,62.5,29.55,SSE,157,0.0,0.0,73,0.00,,,0.00,WUHU21623XXSP,2013-01-30 07:18:00,
2013-01-30 02:23:00,71.6,62.9,29.55,SSE,157,0.0,0.0,74,0.00,,,0.00,WUHU21623XXSP,2013-01-30 07:23:00,
2013-01-30 02:28:00,71.6,62.9,29.55,South,180,0.0,0.0,74,0.00,,,0.00,WUHU21623XXSP,2013-01-30 07:28:00,
2013-01-30 02:33:00,71.6,62.9,29.55,SSE,157,0.0,0.0,74,0.00,,,0.00,WUHU21623XXSP,2013-01-30 07:33:00,
2013-01-30 02:38:00,71.4,62.7,29.55,SSE,157,0.0,0.0,74,0.00,,,0.00,WUHU21623XXSP,2013-01-30 07:38:00,
2013-01-30 02:43:00,71.4,62.7,29.55,SE,135,0.0,0.0,74,0.00,,,0.00,WUHU21623XXSP,2013-01-30 07:43:00,
2013-01-30 02:48:00,71.4,62.7,29.55,SSE,157,0.0,0.0,74,0.00,,,0.00,WUHU21623XXSP,2013-01-30 07:48:00,
2013-01-30 02:53:00,71.2,62.5,29.55,South,180,0.0,0.0,74,0.00,,,0.00,WUHU21623XXSP,2013-01-30 07:53:00,
2013-01-30 02:58:00,71.4,62.7,29.54,SSE,157,0.0,0.0,74,0.00,,,0.00,WUHU21623XXSP,2013-01-30 07:58:00,
2013-01-30 03:03:00,71.2,62.5,29.54,SSE,157,0.0,0.0,74,0.00,,,0.00,WUHU21623XXSP,2013-01-30 08:03:00,
2013-01-30 03:08:00,71.2,62.9,29.54,SSE,157,0.0,0.0,75,0.00,,,0.00,WUHU21623XXSP,2013-01-30 08:08:00,
2013-01-30 03:13:00,71.2,62.9,29.54,SE,135,0.0,0.0,75,0.00,,,0.00,WUHU21623XXSP,2013-01-30 08:13:00,
2013-01-30 03:18:00,71.1,62.7,29.54,SSE,157,0.0,0.0,75,0.00,,,0.00,WUHU21623XXSP,2013-01-30 08:18:00,
2013-01-30 03:23:00,71.1,62.7,29.54,SSE,157,0.0,0.0,75,0.00,,,0.00,WUHU21623XXSP,2013-01-30 08:23:00,
2013-01-30 03:28:00,70.9,62.5,29.54,SSE,157,0.0,0.0,75,0.00,,,0.00,WUHU21623XXSP,2013-01-30 08:28:00,
2013-01-30 03:33:00,71.1,62.7,29.54,SSE,157,0.0,0.0,75,0.00,,,0.00,WUHU21623XXSP,2013-01-30 08:33:00,
2013-01-30 03:38:00,71.2,62.9,29.54,SE,135,0.0,0.0,75,0.00,,,0.00,WUHU21623XXSP,2013-01-30 08:38:00,
2013-01-30 03:43:00,71.2,62.5,29.54,SE,135,0.0,0.0,74,0.00,,,0.00,WUHU21623XXSP,2013-01-30 08:43:00,
2013-01-30 03:48:00,71.2,62.5,29.54,SSE,157,0.0,0.0,74,0.00,,,0.00,WUHU21623XXSP,2013-01-30 08:48:00,
2013-01-30 03:53:00,71.2,62.5,29.54,SSE,157,0.0,0.0,74,0.00,,,0.00,WUHU21623XXSP,2013-01-30 08:53:00,
2013-01-30 03:58:00,71.2,62.5,29.54,SE,135,0.0,0.0,74,0.00,,,0.00,WUHU21623XXSP,2013-01-30 08:58:00,
2013-01-30 04:03:00,71.2,62.5,29.54,SSE,157,0.0,0.0,74,0.00,,,0.00,WUHU21623XXSP,2013-01-30 09:03:00,
2013-01-30 04:08:00,71.2,62.5,29.53,SSE,157,0.0,0.0,74,0.00,,,0.00,WUHU21623XXSP,2013-01-30 09:08:00,
2013-01-30 04:13:00,71.2,62.5,29.53,SSE,157,0.0,0.0,74,0.00,,,0.00,WUHU21623XXSP,2013-01-30 09:13:00,
2013-01-30 04:18:00,71.1,62.7,29.53,SE,135,0.0,0.0,75,0.00,,,0.00,WUHU21623XXSP,2013-01-30 09:18:00,
2013-01-30 04:23:00,71.1,62.7,29.53,SSE,157,0.0,0.0,75,0.00,,,0.00,WUHU21623XXSP,2013-01-30 09:23:00,
2013-01-30 04:28:00,70.9,62.5,29.53,SE,135,0.0,0.0,75,0.00,,,0.00,WUHU21623XXSP,2013-01-30 09:28:00,
2013-01-30 04:33:00,70.9,62.5,29.53,SSE,157,0.0,0.0,75,0.00,,,0.00,WUHU21623XXSP,2013-01-30 09:33:00,
2013-01-30 04:38:00,70.9,62.5,29.53,ESE,112,0.0,0.0,75,0.00,,,0.00,WUHU21623XXSP,2013-01-30 09:38:00,
2013-01-30 04:43:00,70.9,62.5,29.52,SE,135,0.0,0.0,75,0.00,,,0.00,WUHU21623XXSP,2013-01-30 09:43:00,
2013-01-30 04:48:00,70.9,62.5,29.52,South,180,0.0,0.0,75,0.00,,,0.00,WUHU21623XXSP,2013-01-30 09:48:00,
2013-01-30 04:53:00,70.9,62.1,29.52,SSE,157,0.0,0.0,74,0.00,,,0.00,WUHU21623XXSP,2013-01-30 09:53:00,
2013-01-30 04:58:00,70.7,62.0,29.52,SSE,157,0.0,0.0,74,0.00,,,0.00,WUHU21623XXSP,2013-01-30 09:58:00,
2013-01-30 05:03:00,70.7,62.0,29.52,SE,135,0.0,0.0,74,0.00,,,0.00,WUHU21623XXSP,2013-01-30 10:03:00,
2013-01-30 05:08:00,70.5,61.8,29.52,SE,135,0.0,0.0,74,0.00,,,0.00,WUHU21623XXSP,2013-01-30 10:08:00,
2013-01-30 05:13:00,70.5,61.8,29.52,SSE,157,0.0,0.0,74,0.00,,,0.00,WUHU21623XXSP,2013-01-30 10:13:00,
2013-01-30 05:18:00,70.5,61.8,29.52,SSE,157,0.0,0.0,74,0.00,,,0.00,WUHU21623XXSP,2013-01-30 10:18:00,
2013-01-30 05:23:00,70.5,62.2,29.52,South,180,0.0,0.0,75,0.00,,,0.00,WUHU21623XXSP,2013-01-30 10:23:00,
2013-01-30 05:28:00,70.9,62.5,29.52,SSE,157,0.0,0.0,75,0.00,,,0.00,WUHU21623XXSP,2013-01-30 10:28:00,
2013-01-30 05:33:00,70.9,62.5,29.52,SSE,157,0.0,0.0,74,0.00,,,0.00,WUHU21623XXSP,2013-01-30 10:33:00,
2013-01-30 05:38:00,70.9,62.1,29.52,South,180,0.0,0.0,74,0.00,,,0.00,WUHU21623XXSP,2013-01-30 10:38:00,
2013-01-30 05:43:00,70.7,62.0,29.52,SSE,157,0.0,0.0,74,0.00,,,0.00,WUHU21623XXSP,2013-01-30 10:43:00,
2013-01-30 05:48:00,70.7,62.0,29.52,SSE,157,0.0,0.0,74,0.00,,,0.00,WUHU21623XXSP,2013-01-30 10:48:00,
2013-01-30 05:53:00,70.5,61.8,29.53,SSE,157,0.0,0.0,74,0.00,,,0.00,WUHU21623XXSP,2013-01-30 10:53:00,
2013-01-30 05:58:00,70.7,62.0,29.53,SE,135,0.0,0.0,74,0.00,,,0.00,WUHU21623XXSP,2013-01-30 10:58:00,
2013-01-30 06:03:00,70.7,62.0,29.53,SSE,157,0.0,0.0,74,0.00,,,0.00,WUHU21623XXSP,2013-01-30 11:03:00,
2013-01-30 06:08:00,70.7,62.0,29.53,SSE,157,0.0,0.0,74,0.00,,,0.00,WUHU21623XXSP,2013-01-30 11:08:00,
2013-01-30 06:13:00,70.5,61.8,29.53,South,180,0.0,0.0,74,0.00,,,0.00,WUHU21623XXSP,2013-01-30 11:13:00,
2013-01-30 06:18:00,70.5,61.8,29.53,SSE,157,0.0,0.0,74,0.00,,,0.00,WUHU21623XXSP,2013-01-30 11:18:00,
2013-01-30 06:23:00,70.7,62.0,29.53,South,180,0.0,0.0,74,0.00,,,0.00,WUHU21623XXSP,2013-01-30 11:23:00,
2013-01-30 06:28:00,70.5,61.8,29.54,SSE,157,0.0,0.0,74,0.00,,,0.00,WUHU21623XXSP,2013-01-30 11:28:00,
2013-01-30 06:33:00,70.5,61.4,29.54,South,180,0.0,0.0,73,0.00,,,0.00,WUHU21623XXSP,2013-01-30 11:33:00,
2013-01-30 06:38:00,70.5,61.4,29.54,SSE,157,0.0,0.0,73,0.00,,,0.00,WUHU21623XXSP,2013-01-30 11:38:00,
2013-01-30 06:43:00,70.3,61.6,29.54,SSE,157,0.0,0.0,74,0.00,,,0.00,WUHU21623XXSP,2013-01-30 11:43:00,
2013-01-30 06:48:00,70.5,61.4,29.55,SSE,157,0.0,0.0,73,0.00,,,0.00,WUHU21623XXSP,2013-01-30 11:48:00,
2013-01-30 06:53:00,70.3,61.2,29.54,SSE,157,0.0,0.0,73,0.00,,,0.00,WUHU21623XXSP,2013-01-30 11:53:00,
2013-01-30 06:58:00,70.3,61.2,29.54,SSE,157,0.0,0.0,73,0.00,,,0.00,WUHU21623XXSP,2013-01-30 11:58:00,
2013-01-30 07:03:00,70.3,61.2,29.54,SE,135,0.0,0.0,73,0.00,,,0.00,WUHU21623XXSP,2013-01-30 12:03:00,
2013-01-30 07:08:00,70.3,61.2,29.54,SSE,157,0.0,0.0,73,0.00,,,0.00,WUHU21623XXSP,2013-01-30 12:08:00,
2013-01-30 07:13:00,70.3,61.2,29.54,SSE,157,0.0,0.0,73,0.00,,,0.00,WUHU21623XXSP,2013-01-30 12:13:00,
2013-01-30 07:18:00,70.3,61.2,29.54,SSE,157,0.0,0.0,73,0.00,,,0.00,WUHU21623XXSP,2013-01-30 12:18:00,
2013-01-30 07:23:00,70.3,61.2,29.55,SSE,157,0.0,0.0,73,0.00,,,0.00,WUHU21623XXSP,2013-01-30 12:23:00,
2013-01-30 07:28:00,70.3,61.2,29.54,SSE,157,0.0,0.0,73,0.00,,,0.00,WUHU21623XXSP,2013-01-30 12:28:00,
2013-01-30 07:33:00,70.5,61.2,29.54,SE,135,0.0,0.0,73,0.00,,,0.00,WUHU21623XXSP,2013-01-30 12:33:00,
2013-01-30 07:38:00,70.5,61.4,29.54,SE,135,0.0,0.0,73,0.00,,,0.00,WUHU21623XXSP,2013-01-30 12:38:00,
2013-01-30 07:43:00,70.7,61.6,29.54,SSE,157,0.0,0.0,73,0.00,,,0.00,WUHU21623XXSP,2013-01-30 12:43:00,
2013-01-30 07:48:00,70.9,61.8,29.54,SE,135,0.0,0.0,73,0.00,,,0.00,WUHU21623XXSP,2013-01-30 12:48:00,
2013-01-30 07:53:00,71.2,62.1,29.53,SSE,157,0.0,0.0,73,0.00,,,0.00,WUHU21623XXSP,2013-01-30 12:53:00,
2013-01-30 07:58:00,71.4,62.3,29.54,SSE,157,0.0,0.0,73,0.00,,,0.00,WUHU21623XXSP,2013-01-30 12:58:00,
2013-01-30 08:03:00,71.8,62.3,29.54,South,180,0.0,0.0,72,0.00,,,0.00,WUHU21623XXSP,2013-01-30 13:03:00,
2013-01-30 08:08:00,72.0,62.5,29.54,SSE,157,0.0,0.0,72,0.00,,,0.00,WUHU21623XXSP,2013-01-30 13:08:00,
2013-01-30 08:13:00,72.3,62.8,29.54,SW,225,0.0,0.0,72,0.00,,,0.00,WUHU21623XXSP,2013-01-30 13:13:00,
2013-01-30 08:18:00,72.5,62.6,29.54,SSE,157,0.0,0.0,71,0.00,,,0.00,WUHU21623XXSP,2013-01-30 13:18:00,
2013-01-30 08:23:00,72.9,62.6,29.54,South,180,0.0,0.0,70,0.00,,,0.00,WUHU21623XXSP,2013-01-30 13:23:00,
2013-01-30 08:28:00,73.2,63.0,29.54,SSE,157,0.0,0.0,70,0.00,,,0.00,WUHU21623XXSP,2013-01-30 13:28:00,
2013-01-30 08:33:00,73.2,62.5,29.54,ESE,112,0.0,0.0,69,0.00,,,0.00,WUHU21623XXSP,2013-01-30 13:33:00,
2013-01-30 08:38:00,73.6,62.9,29.54,South,180,0.0,0.0,69,0.00,,,0.00,WUHU21623XXSP,2013-01-30 13:38:00,
2013-01-30 08:43:00,73.2,63.0,29.54,South,180,0.0,0.0,70,0.00,,,0.00,WUHU21623XXSP,2013-01-30 13:43:00,
2013-01-30 08:48:00,73.9,63.2,29.54,South,180,0.0,0.0,69,0.00,,,0.00,WUHU21623XXSP,2013-01-30 13:48:00,
2013-01-30 08:53:00,74.1,62.5,29.54,South,180,0.0,0.0,67,0.00,,,0.00,WUHU21623XXSP,2013-01-30 13:53:00,
2013-01-30 08:58:00,74.5,62.3,29.55,SE,135,0.0,0.0,66,0.00,,,0.00,WUHU21623XXSP,2013-01-30 13:58:00,
2013-01-30 09:03:00,75.0,62.9,29.55,SSE,157,0.0,0.0,66,0.00,,,0.00,WUHU21623XXSP,2013-01-30 14:03:00,
2013-01-30 09:08:00,75.0,62.9,29.55,ESE,112,0.0,0.0,66,0.00,,,0.00,WUHU21623XXSP,2013-01-30 14:08:00,
2013-01-30 09:13:00,74.8,63.1,29.55,SE,135,0.0,0.0,67,0.00,,,0.00,WUHU21623XXSP,2013-01-30 14:13:00,
2013-01-30 09:18:00,75.0,63.3,29.55,South,180,0.0,0.0,67,0.00,,,0.00,WUHU21623XXSP,2013-01-30 14:18:00,
2013-01-30 09:24:00,75.0,63.3,29.55,South,180,0.0,0.0,67,0.00,,,0.00,WUHU21623XXSP,2013-01-30 14:24:00,
2013-01-30 09:29:00,75.9,64.1,29.55,South,180,0.0,0.0,67,0.00,,,0.00,WUHU21623XXSP,2013-01-30 14:29:00,
2013-01-30 09:34:00,75.4,63.6,29.55,SSE,157,0.0,0.0,67,0.00,,,0.00,WUHU21623XXSP,2013-01-30 14:34:00,
2013-01-30 09:39:00,76.3,64.1,29.55,SE,135,0.0,0.0,66,0.00,,,0.00,WUHU21623XXSP,2013-01-30 14:39:00,
2013-01-30 09:44:00,76.3,63.6,29.55,SE,135,0.0,0.0,65,0.00,,,0.00,WUHU21623XXSP,2013-01-30 14:44:00,
2013-01-30 09:49:00,76.6,64.0,29.55,SSW,202,0.0,0.0,65,0.00,,,0.00,WUHU21623XXSP,2013-01-30 14:49:00,
2013-01-30 09:54:00,77.2,64.0,29.55,SSE,157,0.0,0.0,64,0.00,,,0.00,WUHU21623XXSP,2013-01-30 14:54:00,
2013-01-30 09:59:00,77.4,63.8,29.55,SE,135,0.0,0.0,63,0.00,,,0.00,WUHU21623XXSP,2013-01-30 14:59:00,
2013-01-30 10:04:00,77.5,63.9,29.55,SSE,157,0.0,0.0,63,0.00,,,0.00,WUHU21623XXSP,2013-01-30 15:04:00,
2013-01-30 10:09:00,77.9,64.3,29.55,South,180,0.0,0.0,63,0.00,,,0.00,WUHU21623XXSP,2013-01-30 15:09:00,
2013-01-30 10:14:00,78.1,64.5,29.55,SSE,157,0.0,0.0,63,0.00,,,0.00,WUHU21623XXSP,2013-01-30 15:14:00,
2013-01-30 10:19:00,78.6,64.5,29.55,SE,135,0.0,0.0,62,0.00,,,0.00,WUHU21623XXSP,2013-01-30 15:19:00,
2013-01-30 10:24:00,78.6,64.5,29.54,SSE,157,0.0,0.0,63,0.00,,,0.00,WUHU21623XXSP,2013-01-30 15:24:00,
2013-01-30 10:29:00,78.6,64.5,29.53,East,90,0.0,0.0,62,0.00,,,0.00,WUHU21623XXSP,2013-01-30 15:29:00,
2013-01-30 10:34:00,78.6,64.5,29.53,ESE,112,0.0,0.0,62,0.00,,,0.00,WUHU21623XXSP,2013-01-30 15:34:00,
2013-01-30 10:39:00,78.6,65.0,29.53,South,180,0.0,0.0,63,0.00,,,0.00,WUHU21623XXSP,2013-01-30 15:39:00,
2013-01-30 10:44:00,79.2,65.0,29.52,SSE,157,0.0,0.0,62,0.00,,,0.00,WUHU21623XXSP,2013-01-30 15:44:00,
2013-01-30 10:49:00,79.5,64.9,29.52,South,180,0.0,0.0,61,0.00,,,0.00,WUHU21623XXSP,2013-01-30 15:49:00,
2013-01-30 10:54:00,79.2,64.6,29.52,SE,135,0.0,0.0,61,0.00,,,0.00,WUHU21623XXSP,2013-01-30 15:54:00,
2013-01-30 10:59:00,79.3,64.8,29.52,SSE,157,0.0,0.0,61,0.00,,,0.00,WUHU21623XXSP,2013-01-30 15:59:00,
2013-01-30 11:04:00,79.5,64.5,29.52,South,180,0.0,0.0,60,0.00,,,0.00,WUHU21623XXSP,2013-01-30 16:04:00,
2013-01-30 11:09:00,79.9,64.8,29.51,SSE,157,0.0,0.0,60,0.00,,,0.00,WUHU21623XXSP,2013-01-30 16:09:00,
2013-01-30 11:14:00,79.9,64.8,29.52,SSE,157,0.0,0.0,60,0.00,,,0.00,WUHU21623XXSP,2013-01-30 16:14:00,
2013-01-30 11:19:00,79.9,65.3,29.51,South,180,0.0,0.0,61,0.00,,,0.00,WUHU21623XXSP,2013-01-30 16:19:00,
2013-01-30 11:24:00,79.9,64.8,29.51,SSE,157,0.0,0.0,60,0.00,,,0.00,WUHU21623XXSP,2013-01-30 16:24:00,
2013-01-30 11:29:00,80.1,65.0,29.51,SSE,157,0.0,0.0,60,0.00,,,0.00,WUHU21623XXSP,2013-01-30 16:29:00,
2013-01-30 11:34:00,79.9,64.8,29.51,SSW,202,0.0,0.0,60,0.00,,,0.00,WUHU21623XXSP,2013-01-30 16:34:00,
2013-01-30 11:39:00,80.1,64.5,29.50,ESE,112,0.0,0.0,59,0.00,,,0.00,WUHU21623XXSP,2013-01-30 16:39:00,
2013-01-30 11:44:00,80.8,65.1,29.50,SSE,157,0.0,0.0,59,0.00,,,0.00,WUHU21623XXSP,2013-01-30 16:44:00,
2013-01-30 11:49:00,80.4,64.3,29.50,South,180,0.0,0.0,58,0.00,,,0.00,WUHU21623XXSP,2013-01-30 16:49:00,
2013-01-30 11:54:00,81.1,65.4,29.49,SSE,157,0.0,0.0,59,0.00,,,0.00,WUHU21623XXSP,2013-01-30 16:54:00,
2013-01-30 11:59:00,81.1,64.9,29.49,SSE,157,0.0,0.0,58,0.00,,,0.00,WUHU21623XXSP,2013-01-30 16:59:00,
2013-01-30 12:04:00,80.4,64.8,29.48,South,180,0.0,0.0,59,0.00,,,0.00,WUHU21623XXSP,2013-01-30 17:04:00,
2013-01-30 12:09:00,81.7,65.9,29.48,South,180,0.0,0.0,59,0.00,,,0.00,WUHU21623XXSP,2013-01-30 17:09:00,
2013-01-30 12:14:00,81.9,65.6,29.48,South,180,0.0,0.0,58,0.00,,,0.00,WUHU21623XXSP,2013-01-30 17:14:00,
2013-01-30 12:19:00,82.2,65.9,29.48,South,180,0.0,0.0,58,0.00,,,0.00,WUHU21623XXSP,2013-01-30 17:19:00,
2013-01-30 12:24:00,81.5,65.2,29.47,SSE,157,0.0,0.0,58,0.00,,,0.00,WUHU21623XXSP,2013-01-30 17:24:00,
2013-01-30 12:29:00,83.1,66.3,29.46,South,180,0.0,0.0,57,0.00,,,0.00,WUHU21623XXSP,2013-01-30 17:29:00,
2013-01-30 12:34:00,82.4,65.5,29.46,SE,135,0.0,0.0,57,0.00,,,0.00,WUHU21623XXSP,2013-01-30 17:34:00,
2013-01-30 12:39:00,81.7,65.4,29.45,South,180,0.0,0.0,58,0.00,,,0.00,WUHU21623XXSP,2013-01-30 17:39:00,
2013-01-30 12:44:00,82.2,65.9,29.45,ESE,112,0.0,0.0,58,0.00,,,0.00,WUHU21623XXSP,2013-01-30 17:44:00,
2013-01-30 12:49:00,82.6,66.2,29.45,SSE,157,0.0,0.0,58,0.00,,,0.00,WUHU21623XXSP,2013-01-30 17:49:00,
2013-01-30 12:54:00,81.3,65.1,29.45,SSE,157,0.0,0.0,58,0.00,,,0.00,WUHU21623XXSP,2013-01-30 17:54:00,
2013-01-30 12:59:00,81.1,65.4,29.45,SSE,157,0.0,0.0,59,0.00,,,0.00,WUHU21623XXSP,2013-01-30 17:59:00,
2013-01-30 13:04:00,81.1,65.4,29.45,South,180,0.0,0.0,59,0.00,,,0.00,WUHU21623XXSP,2013-01-30 18:04:00,
2013-01-30 13:09:00,81.0,66.3,29.44,South,180,0.0,0.0,61,0.00,,,0.00,WUHU21623XXSP,2013-01-30 18:09:00,
2013-01-30 13:14:00,81.1,66.0,29.44,SE,135,0.0,0.0,60,0.00,,,0.00,WUHU21623XXSP,2013-01-30 18:14:00,
2013-01-30 13:19:00,80.8,65.6,29.44,ESE,112,0.0,0.0,60,0.00,,,0.00,WUHU21623XXSP,2013-01-30 18:19:00,
2013-01-30 13:24:00,81.5,66.3,29.44,SSE,157,0.0,0.0,60,0.00,,,0.00,WUHU21623XXSP,2013-01-30 18:24:00,
2013-01-30 13:29:00,81.9,66.1,29.43,SW,225,0.0,0.0,59,0.00,,,0.00,WUHU21623XXSP,2013-01-30 18:29:00,
2013-01-30 13:34:00,82.2,65.9,29.43,SE,135,0.0,0.0,58,0.00,,,0.00,WUHU21623XXSP,2013-01-30 18:34:00,
2013-01-30 13:39:00,82.0,65.7,29.43,South,180,0.0,0.0,58,0.00,,,0.00,WUHU21623XXSP,2013-01-30 18:39:00,
2013-01-30 13:44:00,82.2,65.9,29.43,South,180,0.0,0.0,58,0.00,,,0.00,WUHU21623XXSP,2013-01-30 18:44:00,
2013-01-30 13:49:00,82.0,66.3,29.43,South,180,0.0,0.0,59,0.00,,,0.00,WUHU21623XXSP,2013-01-30 18:49:00,
2013-01-30 13:54:00,82.0,66.8,29.43,ESE,112,0.0,0.0,60,0.00,,,0.00,WUHU21623XXSP,2013-01-30 18:54:00,
2013-01-30 13:59:00,81.3,66.1,29.43,South,180,0.0,0.0,60,0.00,,,0.00,WUHU21623XXSP,2013-01-30 18:59:00,
2013-01-30 14:04:00,81.3,66.1,29.43,ESE,112,0.0,0.0,60,0.00,,,0.00,WUHU21623XXSP,2013-01-30 19:04:00,
2013-01-30 14:09:00,81.1,66.4,29.43,South,180,0.0,0.0,61,0.00,,,0.00,WUHU21623XXSP,2013-01-30 19:09:00,
2013-01-30 14:14:00,81.1,66.4,29.43,SSE,157,0.0,0.0,61,0.00,,,0.00,WUHU21623XXSP,2013-01-30 19:14:00,
2013-01-30 14:19:00,81.5,66.3,29.43,South,180,0.0,0.0,60,0.00,,,0.00,WUHU21623XXSP,2013-01-30 19:19:00,
2013-01-30 14:24:00,83.1,66.8,29.42,SSE,157,0.0,0.0,58,0.00,,,0.00,WUHU21623XXSP,2013-01-30 19:24:00,
2013-01-30 14:29:00,83.8,66.5,29.42,SE,135,0.0,0.0,56,0.00,,,0.00,WUHU21623XXSP,2013-01-30 19:29:00,
2013-01-30 14:34:00,83.5,66.6,29.42,SE,135,0.0,0.0,56,0.00,,,0.00,WUHU21623XXSP,2013-01-30 19:34:00,
2013-01-30 14:39:00,81.7,65.4,29.42,SSE,157,0.0,0.0,58,0.00,,,0.00,WUHU21623XXSP,2013-01-30 19:39:00,
2013-01-30 14:44:00,81.5,65.8,29.41,SSE,157,0.0,0.0,59,0.00,,,0.00,WUHU21623XXSP,2013-01-30 19:44:00,
2013-01-30 14:49:00,81.1,65.4,29.42,SSE,157,0.0,0.0,59,0.00,,,0.00,WUHU21623XXSP,2013-01-30 19:49:00,
2013-01-30 14:54:00,80.6,65.5,29.43,South,180,0.0,0.0,60,0.00,,,0.00,WUHU21623XXSP,2013-01-30 19:54:00,
2013-01-30 14:59:00,81.7,65.9,29.43,South,180,0.0,0.0,59,0.00,,,0.00,WUHU21623XXSP,2013-01-30 19:59:00,
2013-01-30 15:04:00,82.2,66.4,29.43,SSW,202,0.0,0.0,59,0.00,,,0.00,WUHU21623XXSP,2013-01-30 20:04:00,
2013-01-30 15:09:00,82.8,65.9,29.43,South,180,0.0,0.0,57,0.00,,,0.00,WUHU21623XXSP,2013-01-30 20:09:00,
2013-01-30 15:14:00,82.6,65.7,29.43,South,180,0.0,0.0,57,0.00,,,0.00,WUHU21623XXSP,2013-01-30 20:14:00,
2013-01-30 15:19:00,83.1,66.3,29.43,SSE,157,0.0,0.0,57,0.00,,,0.00,WUHU21623XXSP,2013-01-30 20:19:00,
2013-01-30 15:24:00,82.0,65.7,29.45,SSE,157,0.0,0.0,58,0.00,,,0.00,WUHU21623XXSP,2013-01-30 20:24:00,
2013-01-30 15:29:00,82.0,65.7,29.44,SSE,157,0.0,0.0,58,0.00,,,0.00,WUHU21623XXSP,2013-01-30 20:29:00,
2013-01-30 15:34:00,81.7,64.9,29.44,South,180,0.0,0.0,57,0.00,,,0.00,WUHU21623XXSP,2013-01-30 20:34:00,
2013-01-30 15:39:00,81.7,65.4,29.44,SSE,157,0.0,0.0,58,0.00,,,0.00,WUHU21623XXSP,2013-01-30 20:39:00,
2013-01-30 15:44:00,81.9,65.6,29.44,SSE,157,0.0,0.0,58,0.00,,,0.00,WUHU21623XXSP,2013-01-30 20:44:00,
2013-01-30 15:49:00,81.5,65.2,29.44,South,180,0.0,0.0,58,0.00,,,0.00,WUHU21623XXSP,2013-01-30 20:49:00,
2013-01-30 15:54:00,81.3,65.6,29.45,SE,135,0.0,0.0,59,0.00,,,0.00,WUHU21623XXSP,2013-01-30 20:54:00,
2013-01-30 15:59:00,80.8,65.1,29.45,South,180,0.0,0.0,59,0.00,,,0.00,WUHU21623XXSP,2013-01-30 20:59:00,
2013-01-30 16:04:00,80.8,65.1,29.45,SSW,202,0.0,0.0,59,0.00,,,0.00,WUHU21623XXSP,2013-01-30 21:04:00,
2013-01-30 16:09:00,80.8,65.1,29.45,South,180,0.0,0.0,59,0.00,,,0.00,WUHU21623XXSP,2013-01-30 21:09:00,
2013-01-30 16:14:00,80.4,65.3,29.45,SSE,157,0.0,0.0,60,0.00,,,0.00,WUHU21623XXSP,2013-01-30 21:14:00,
2013-01-30 16:19:00,79.9,64.8,29.45,South,180,0.0,0.0,60,0.00,,,0.00,WUHU21623XXSP,2013-01-30 21:19:00,
2013-01-30 16:24:00,79.9,64.8,29.46,South,180,0.0,0.0,60,0.00,,,0.00,WUHU21623XXSP,2013-01-30 21:24:00,
2013-01-30 16:29:00,79.7,64.7,29.46,SSW,202,0.0,0.0,60,0.00,,,0.00,WUHU21623XXSP,2013-01-30 21:29:00,
2013-01-30 16:34:00,79.5,64.5,29.46,SE,135,0.0,0.0,60,0.00,,,0.00,WUHU21623XXSP,2013-01-30 21:34:00,
2013-01-30 16:39:00,79.3,64.3,29.46,South,180,0.0,0.0,60,0.00,,,0.00,WUHU21623XXSP,2013-01-30 21:39:00,
2013-01-30 16:44:00,79.3,64.3,29.46,SSW,202,0.0,0.0,60,0.00,,,0.00,WUHU21623XXSP,2013-01-30 21:44:00,
2013-01-30 16:49:00,79.2,64.6,29.47,SSW,202,0.0,0.0,61,0.00,,,0.00,WUHU21623XXSP,2013-01-30 21:49:00,
2013-01-30 16:54:00,79.2,64.6,29.47,South,180,0.0,0.0,61,0.00,,,0.00,WUHU21623XXSP,2013-01-30 21:54:00,
2013-01-30 16:59:00,79.2,64.6,29.46,SSW,202,0.0,0.0,61,0.00,,,0.00,WUHU21623XXSP,2013-01-30 21:59:00,
2013-01-30 17:04:00,79.0,64.5,29.46,South,180,0.0,0.0,61,0.00,,,0.00,WUHU21623XXSP,2013-01-30 22:04:00,
2013-01-30 17:09:00,78.6,64.1,29.46,South,180,0.0,0.0,61,0.00,,,0.00,WUHU21623XXSP,2013-01-30 22:09:00,
2013-01-30 17:14:00,79.0,64.5,29.45,SSW,202,0.0,0.0,61,0.00,,,0.00,WUHU21623XXSP,2013-01-30 22:14:00,
2013-01-30 17:19:00,78.6,64.5,29.45,SSE,157,0.0,0.0,62,0.00,,,0.00,WUHU21623XXSP,2013-01-30 22:19:00,
2013-01-30 17:24:00,78.6,64.5,29.45,SSE,157,0.0,0.0,62,0.00,,,0.00,WUHU21623XXSP,2013-01-30 22:24:00,
2013-01-30 17:29:00,78.4,64.4,29.44,South,180,0.0,0.0,62,0.00,,,0.00,WUHU21623XXSP,2013-01-30 22:29:00,
2013-01-30 17:34:00,77.9,64.3,29.44,South,180,0.0,0.0,63,0.00,,,0.00,WUHU21623XXSP,2013-01-30 22:34:00,
2013-01-30 17:39:00,77.7,64.1,29.44,South,180,0.0,0.0,63,0.00,,,0.00,WUHU21623XXSP,2013-01-30 22:39:00,
2013-01-30 17:44:00,77.4,64.2,29.44,SSE,157,0.0,0.0,64,0.00,,,0.00,WUHU21623XXSP,2013-01-30 22:44:00,
2013-01-30 17:49:00,76.8,64.1,29.44,South,180,0.0,0.0,65,0.00,,,0.00,WUHU21623XXSP,2013-01-30 22:49:00,
2013-01-30 17:54:00,76.6,64.0,29.44,SSW,202,0.0,0.0,65,0.00,,,0.00,WUHU21623XXSP,2013-01-30 22:54:00,
2013-01-30 17:59:00,76.6,64.0,29.44,South,180,0.0,0.0,65,0.00,,,0.00,WUHU21623XXSP,2013-01-30 22:59:00,
2013-01-30 18:04:00,76.3,64.1,29.43,SSE,157,0.0,0.0,66,0.00,,,0.00,WUHU21623XXSP,2013-01-30 23:04:00,
2013-01-30 18:09:00,76.1,64.3,29.43,South,180,0.0,0.0,67,0.00,,,0.00,WUHU21623XXSP,2013-01-30 23:09:00,
2013-01-30 18:14:00,75.9,64.6,29.43,SSE,157,0.0,0.0,68,0.00,,,0.00,WUHU21623XXSP,2013-01-30 23:14:00,
2013-01-30 18:19:00,75.6,64.2,29.43,South,180,0.0,0.0,68,0.00,,,0.00,WUHU21623XXSP,2013-01-30 23:19:00,
2013-01-30 18:24:00,75.4,64.1,29.43,SE,135,0.0,0.0,68,0.00,,,0.00,WUHU21623XXSP,2013-01-30 23:24:00,
2013-01-30 18:29:00,75.0,64.1,29.43,SSE,157,0.0,0.0,69,0.00,,,0.00,WUHU21623XXSP,2013-01-30 23:29:00,
2013-01-30 18:34:00,75.0,64.6,29.43,SSE,157,0.0,0.0,70,0.00,,,0.00,WUHU21623XXSP,2013-01-30 23:34:00,
2013-01-30 18:39:00,75.0,64.6,29.43,South,180,0.0,0.0,70,0.00,,,0.00,WUHU21623XXSP,2013-01-30 23:39:00,
2013-01-30 18:44:00,74.8,64.4,29.43,SSE,157,0.0,0.0,70,0.00,,,0.00,WUHU21623XXSP,2013-01-30 23:44:00,
2013-01-30 18:49:00,74.5,64.5,29.43,SSE,157,0.0,0.0,71,0.00,,,0.00,WUHU21623XXSP,2013-01-30 23:49:00,
2013-01-30 18:54:00,74.5,64.5,29.43,SE,135,0.0,0.0,71,0.00,,,0.00,WUHU21623XXSP,2013-01-30 23:54:00,
2013-01-30 18:59:00,74.5,64.5,29.43,South,180,0.0,0.0,71,0.00,,,0.00,WUHU21623XXSP,2013-01-30 23:59:00,
2013-01-30 19:04:00,74.3,64.3,29.44,SSW,202,0.0,0.0,71,0.00,,,0.00,WUHU21623XXSP,2013-01-31 00:04:00,
2013-01-30 19:09:00,74.3,64.3,29.44,South,180,0.0,0.0,71,0.00,,,0.00,WUHU21623XXSP,2013-01-31 00:09:00,
2013-01-30 19:14:00,74.3,64.3,29.43,South,180,0.0,0.0,71,0.00,,,0.00,WUHU21623XXSP,2013-01-31 00:14:00,
2013-01-30 19:19:00,74.1,64.5,29.44,South,180,0.0,0.0,72,0.00,,,0.00,WUHU21623XXSP,2013-01-31 00:19:00,
2013-01-30 19:24:00,73.9,64.4,29.44,South,180,0.0,0.0,72,0.00,,,0.00,WUHU21623XXSP,2013-01-31 00:24:00,
2013-01-30 19:29:00,73.8,64.6,29.43,South,180,0.0,0.0,73,0.00,,,0.00,WUHU21623XXSP,2013-01-31 00:29:00,
2013-01-30 19:34:00,73.6,64.4,29.44,SSE,157,0.0,0.0,73,0.00,,,0.00,WUHU21623XXSP,2013-01-31 00:34:00,
2013-01-30 19:39:00,73.6,64.8,29.44,South,180,0.0,0.0,74,0.00,,,0.00,WUHU21623XXSP,2013-01-31 00:39:00,
2013-01-30 19:44:00,73.4,64.7,29.44,SSE,157,0.0,0.0,74,0.00,,,0.00,WUHU21623XXSP,2013-01-31 00:44:00,
2013-01-30 19:49:00,73.2,64.5,29.44,SSE,157,0.0,0.0,74,0.00,,,0.00,WUHU21623XXSP,2013-01-31 00:49:00,
2013-01-30 19:54:00,73.2,64.5,29.44,SSE,157,0.0,0.0,74,0.00,,,0.00,WUHU21623XXSP,2013-01-31 00:54:00,
2013-01-30 19:59:00,73.0,64.7,29.44,South,180,0.0,0.0,75,0.00,,,0.00,WUHU21623XXSP,2013-01-31 00:59:00,
2013-01-30 20:04:00,73.0,64.7,29.44,South,180,0.0,0.0,75,0.00,,,0.00,WUHU21623XXSP,2013-01-31 01:04:00,
2013-01-30 20:09:00,73.0,65.0,29.44,South,180,0.0,0.0,76,0.00,,,0.00,WUHU21623XXSP,2013-01-31 01:09:00,
2013-01-30 20:14:00,72.7,64.7,29.44,South,180,0.0,0.0,76,0.00,,,0.00,WUHU21623XXSP,2013-01-31 01:14:00,
2013-01-30 20:19:00,72.7,64.7,29.44,South,180,0.0,0.0,76,0.00,,,0.00,WUHU21623XXSP,2013-01-31 01:19:00,
2013-01-30 20:24:00,72.7,64.7,29.44,South,180,0.0,0.0,76,0.00,,,0.00,WUHU21623XXSP,2013-01-31 01:24:00,
2013-01-30 20:29:00,72.7,65.1,29.44,South,180,0.0,0.0,77,0.00,,,0.00,WUHU21623XXSP,2013-01-31 01:29:00,
2013-01-30 20:34:00,72.5,64.9,29.45,South,180,0.0,0.0,77,0.00,,,0.00,WUHU21623XXSP,2013-01-31 01:34:00,
2013-01-30 20:39:00,72.3,64.7,29.44,South,180,0.0,0.0,77,0.00,,,0.00,WUHU21623XXSP,2013-01-31 01:39:00,
2013-01-30 20:44:00,72.3,64.7,29.45,South,180,0.0,0.0,77,0.00,,,0.00,WUHU21623XXSP,2013-01-31 01:44:00,
2013-01-30 20:49:00,72.3,64.7,29.45,SSE,157,0.0,0.0,77,0.00,,,0.00,WUHU21623XXSP,2013-01-31 01:49:00,
2013-01-30 20:54:00,72.1,64.5,29.45,SSE,157,0.0,0.0,77,0.00,,,0.00,WUHU21623XXSP,2013-01-31 01:54:00,
2013-01-30 20:59:00,72.1,64.5,29.45,SSE,157,0.0,0.0,77,0.00,,,0.00,WUHU21623XXSP,2013-01-31 01:59:00,
2013-01-30 21:04:00,72.0,64.7,29.45,SSE,157,0.0,0.0,78,0.00,,,0.00,WUHU21623XXSP,2013-01-31 02:04:00,
2013-01-30 21:09:00,71.8,64.5,29.45,SSE,157,0.0,0.0,78,0.00,,,0.00,WUHU21623XXSP,2013-01-31 02:09:00,
2013-01-30 21:14:00,71.8,64.5,29.45,SSE,157,0.0,0.0,78,0.00,,,0.00,WUHU21623XXSP,2013-01-31 02:14:00,
2013-01-30 21:19:00,71.8,64.5,29.45,SSE,157,0.0,0.0,78,0.00,,,0.00,WUHU21623XXSP,2013-01-31 02:19:00,
2013-01-30 21:24:00,71.6,64.7,29.45,SSE,157,0.0,0.0,79,0.00,,,0.00,WUHU21623XXSP,2013-01-31 02:24:00,
2013-01-30 21:29:00,71.6,64.7,29.45,SSE,157,0.0,0.0,79,0.00,,,0.00,WUHU21623XXSP,2013-01-31 02:29:00,
2013-01-30 21:34:00,71.4,64.6,29.45,South,180,0.0,0.0,79,0.00,,,0.00,WUHU21623XXSP,2013-01-31 02:34:00,
2013-01-30 21:39:00,71.4,64.6,29.45,SSE,157,0.0,0.0,79,0.00,,,0.00,WUHU21623XXSP,2013-01-31 02:39:00,
2013-01-30 21:44:00,71.4,64.6,29.45,SSE,157,0.0,0.0,79,0.00,,,0.00,WUHU21623XXSP,2013-01-31 02:44:00,
2013-01-30 21:49:00,71.4,64.9,29.45,SSE,157,0.0,0.0,80,0.00,,,0.00,WUHU21623XXSP,2013-01-31 02:49:00,
2013-01-30 21:54:00,71.4,64.9,29.46,SSE,157,0.0,0.0,80,0.00,,,0.00,WUHU21623XXSP,2013-01-31 02:54:00,
2013-01-30 21:59:00,71.4,64.9,29.46,SSE,157,0.0,0.0,80,0.00,,,0.00,WUHU21623XXSP,2013-01-31 02:59:00,
2013-01-30 22:04:00,71.4,64.9,29.46,SSE,157,0.0,0.0,80,0.00,,,0.00,WUHU21623XXSP,2013-01-31 03:04:00,
2013-01-30 22:09:00,71.4,64.9,29.46,SSE,157,0.0,0.0,80,0.00,,,0.00,WUHU21623XXSP,2013-01-31 03:09:00,
2013-01-30 22:14:00,71.2,64.8,29.46,SSE,157,0.0,0.0,80,0.00,,,0.00,WUHU21623XXSP,2013-01-31 03:14:00,
2013-01-30 22:19:00,71.4,65.3,29.46,SSE,157,0.0,0.0,81,0.00,,,0.00,WUHU21623XXSP,2013-01-31 03:19:00,
2013-01-30 22:24:00,71.2,65.1,29.46,SSE,157,0.0,0.0,81,0.00,,,0.00,WUHU21623XXSP,2013-01-31 03:24:00,
2013-01-30 22:29:00,71.2,65.1,29.45,SE,135,0.0,0.0,81,0.00,,,0.00,WUHU21623XXSP,2013-01-31 03:29:00,
2013-01-30 22:34:00,71.2,65.1,29.45,SSE,157,0.0,0.0,81,0.00,,,0.00,WUHU21623XXSP,2013-01-31 03:34:00,
2013-01-30 22:39:00,71.2,65.1,29.45,SSE,157,0.0,0.0,81,0.00,,,0.00,WUHU21623XXSP,2013-01-31 03:39:00,
2013-01-30 22:44:00,71.2,65.1,29.45,SSE,157,0.0,0.0,81,0.00,,,0.00,WUHU21623XXSP,2013-01-31 03:44:00,
2013-01-30 22:49:00,71.2,65.1,29.45,South,180,0.0,0.0,81,0.00,,,0.00,WUHU21623XXSP,2013-01-31 03:49:00,
2013-01-30 22:54:00,71.2,65.1,29.45,South,180,0.0,0.0,81,0.00,,,0.00,WUHU21623XXSP,2013-01-31 03:54:00,
2013-01-30 22:59:00,71.2,65.1,29.45,South,180,0.0,0.0,81,0.00,,,0.00,WUHU21623XXSP,2013-01-31 03:59:00,
2013-01-30 23:04:00,71.2,65.4,29.45,SSE,157,0.0,0.0,82,0.00,,,0.00,WUHU21623XXSP,2013-01-31 04:04:00,
2013-01-30 23:09:00,71.2,65.4,29.45,South,180,0.0,0.0,82,0.00,,,0.00,WUHU21623XXSP,2013-01-31 04:09:00,
2013-01-30 23:14:00,71.2,65.4,29.45,South,180,0.0,0.0,82,0.00,,,0.00,WUHU21623XXSP,2013-01-31 04:14:00,
2013-01-30 23:19:00,71.2,65.4,29.45,South,180,0.0,0.0,82,0.00,,,0.00,WUHU21623XXSP,2013-01-31 04:19:00,
2013-01-30 23:24:00,71.2,65.4,29.44,South,180,0.0,0.0,82,0.00,,,0.00,WUHU21623XXSP,2013-01-31 04:24:00,
2013-01-30 23:29:00,71.1,65.3,29.44,SSE,157,0.0,0.0,82,0.00,,,0.00,WUHU21623XXSP,2013-01-31 04:29:00,
2013-01-30 23:34:00,71.2,65.4,29.44,South,180,0.0,0.0,82,0.00,,,0.00,WUHU21623XXSP,2013-01-31 04:34:00,
2013-01-30 23:39:00,71.2,65.4,29.44,South,180,0.0,0.0,82,0.00,,,0.00,WUHU21623XXSP,2013-01-31 04:39:00,
2013-01-30 23:44:00,71.2,65.4,29.44,South,180,0.0,0.0,82,0.00,,,0.00,WUHU21623XXSP,2013-01-31 04:44:00,
2013-01-30 23:49:00,70.9,65.4,29.44,SSE,157,0.0,0.0,83,0.00,,,0.00,WUHU21623XXSP,2013-01-31 04:49:00,
2013-01-30 23:54:00,70.9,65.4,29.44,South,180,0.0,0.0,83,0.00,,,0.00,WUHU21623XXSP,2013-01-31 04:54:00,
2013-01-30 23:59:00,70.9,65.1,29.44,South,180,0.0,0.0,82,0.00,,,0.00,WUHU21623XXSP,2013-01-31 04:59:00,